This demonstration page uses our WeatherBlox Daily Observations layout. Learn more.

Left ArrowRight Arrow

Hourly Observations for December 8, 2019

Temp ( °F °C ) Dew Point ( °F °C ) Humidity (%) Winds ( mph kmh ) Pressure ( in mb ) Visibility ( mi km ) Precip ( " mm )
12:53 am 00:53 Cloudy 55 12.8 52 11.1 90 90 SSW 10 17 29.85 1011 10 16 0.00 0.00
1:53 am 01:53 Cloudy with Light Rain 55 12.8 52 11.1 90 90 SSW 9 15 29.87 1012 7 11 0.01 0.25
2:08 am 02:08 Cloudy 55 12.8 52 11.1 90 90 SSW 12 19 29.88 1012 10 16 0.00 0.00
2:21 am 02:21 Cloudy 55 12.8 52 11.1 90 90 SSW 13 20 29.88 1012 10 16 0.00 0.00
2:53 am 02:53 Cloudy 54 12.2 52 11.1 93 93 S 9 15 29.88 1012 10 16 0.00 0.00
3:53 am 03:53 Cloudy 54 12.2 51 10.6 90 90 SSW 7 11 29.89 1012 10 16 0.00 0.00
4:53 am 04:53 Cloudy 54 12.2 51 10.6 90 90 SSW 6 9 29.91 1013 10 16 0.00 0.00
5:20 am 05:20 Cloudy 54 12.2 51 10.6 90 90 S 9 15 29.91 1013 10 16 0.00 0.00
5:53 am 05:53 Cloudy 54 12.2 51 10.6 90 90 SW 5 7 29.92 1013 10 16 0.00 0.00
6:53 am 06:53 Cloudy 53 11.7 51 10.6 93 93 WSW 5 7 29.95 1014 10 16 0.00 0.00
7:38 am 07:38 Cloudy 53 11.7 51 10.6 93 93 W 6 9 29.97 1015 10 16 0.00 0.00
7:53 am 07:53 Cloudy 53 11.7 51 10.6 93 93 W 3 6 29.97 1015 10 16 0.00 0.00
8:26 am 08:26 Cloudy 54 12.2 50 10 87 87 WSW 6 9 29.99 1016 10 16 0.00 0.00
8:53 am 08:53 Mostly Cloudy 53 11.7 50 10 89 89 W 5 7 29.99 1016 10 16 0.00 0.00
9:53 am 09:53 Mostly Cloudy 55 12.8 50 10 83 83 Calm 30.02 1017 10 16 0.00 0.00
10:41 am 10:41 Mostly Sunny 56 13.3 51 10.6 84 84 ESE 5 7 30.04 1017 10 16 0.00 0.00
10:53 am 10:53 Mostly Cloudy 56 13.3 51 10.6 84 84 SE 5 7 30.03 1017 10 16 0.00 0.00
11:53 am 11:53 Cloudy 57 13.9 51 10.6 81 81 E 3 6 30.03 1017 10 16 0.00 0.00
12:53 pm 12:53 Mostly Cloudy 58 14.4 50 10 75 75 N 3 6 30.02 1017 10 16 0.00 0.00
1:53 pm 13:53 Mostly Cloudy 58 14.4 49 9.4 72 72 Calm 30.02 1017 10 16 0.00 0.00
2:53 pm 14:53 Sunny 58 14.4 49 9.4 72 72 Calm 30.02 1017 10 16 0.00 0.00
3:53 pm 15:53 Sunny 59 15 49 9.4 69 69 SW 3 6 30.03 1017 10 16 0.00 0.00
4:53 pm 16:53 Clear 53 11.7 49 9.4 86 86 Calm 30.04 1017 10 16 0.00 0.00
5:53 pm 17:53 Clear 51 10.6 48 8.9 89 89 Calm 30.05 1018 10 16 0.00 0.00
6:53 pm 18:53 Clear 50 10 48 8.9 93 93 N 3 6 30.06 1018 10 16 0.00 0.00
7:53 pm 19:53 Clear 49 9.4 47 8.3 93 93 Calm 30.08 1019 9 14 0.00 0.00
8:53 pm 20:53 Clear with Mist and Fog 48 8.9 46 7.8 93 93 NW 6 9 30.10 1019 6 10 0.00 0.00
9:53 pm 21:53 Clear 47 8.3 45 7.2 93 93 NW 3 6 30.11 1020 9 14 0.00 0.00
10:53 pm 22:53 Clear with Mist and Fog 45 7.2 43 6.1 93 93 Calm 30.12 1020 6 10 0.00 0.00
11:53 pm 23:53 Clear 43 6.1 41 5 93 93 NNW 3 6 30.12 1020 7 11 0.00 0.00

Powered by AerisWeather